| time (UTC) | temp F | wind direction | speed MPH | gust MPH | rain 1hr in | rain 24hr in | rain mn in | humidity % | barometer mb |
| 20260507060517 | 32 | 0.0 | 0.0 | 0.00 | 0.00 | 0.00 | 71 | 1014.8 | |
| 20260507055517 | 33 | 248 | 1.0 | 2.0 | 0.00 | 0.00 | 0.00 | 71 | 1014.7 |
| 20260507054516 | 33 | 180 | 1.0 | 2.0 | 0.00 | 0.00 | 0.00 | 70 | 1015.0 |
| 20260507053517 | 33 | 158 | 1.0 | 2.0 | 0.00 | 0.00 | 0.00 | 69 | 1014.9 |
| 20260507052516 | 34 | 158 | 2.0 | 4.0 | 0.00 | 0.00 | 0.00 | 68 | 1014.9 |
| 20260507051537 | 34 | 158 | 3.0 | 4.0 | 0.00 | 0.00 | 0.00 | 66 | 1014.9 |
| 20260507050517 | 35 | 158 | 4.0 | 5.0 | 0.00 | 0.00 | 0.00 | 65 | 1015.3 |
| 20260507045515 | 36 | 180 | 2.0 | 3.0 | 0.00 | 0.00 | 0.00 | 64 | 1015.3 |
| 20260507044515 | 36 | 0.0 | 0.0 | 0.00 | 0.00 | 0.00 | 64 | 1015.6 | |
| 20260507043517 | 35 | 0.0 | 0.0 | 0.00 | 0.00 | 0.00 | 66 | 1015.5 | |
| 20260507042515 | 35 | 0.0 | 0.0 | 0.00 | 0.00 | 0.00 | 65 | 1015.7 | |
| 20260507041515 | 35 | 0.0 | 0.0 | 0.00 | 0.00 | 0.00 | 65 | 1015.7 | |
| 20260507040535 | 36 | 0.0 | 0.0 | 0.00 | 0.00 | 0.00 | 63 | 1015.8 | |
| 20260507035515 | 37 | 0.0 | 0.0 | 0.00 | 0.00 | 0.00 | 60 | 1015.8 | |
| 20260507034515 | 38 | 0.0 | 0.0 | 0.00 | 0.00 | 0.00 | 59 | 1015.9 | |
| 20260507033537 | 38 | 0.0 | 0.0 | 0.00 | 0.00 | 0.00 | 58 | 1015.9 | |
| 20260507032517 | 38 | 0.0 | 0.0 | 0.00 | 0.00 | 0.00 | 58 | 1015.9 | |
| 20260507031517 | 38 | 0.0 | 0.0 | 0.00 | 0.00 | 0.00 | 58 | 1015.9 | |
| 20260507030517 | 38 | 0.0 | 0.0 | 0.00 | 0.00 | 0.00 | 57 | 1015.9 | |
| 20260507025517 | 38 | 0.0 | 0.0 | 0.00 | 0.00 | 0.00 | 58 | 1016.0 | |
| 20260507024537 | 38 | 315 | 1.0 | 1.0 | 0.00 | 0.00 | 0.00 | 58 | 1016.0 |
| 20260507023517 | 38 | 315 | 2.0 | 2.0 | 0.00 | 0.00 | 0.00 | 58 | 1016.0 |
| 20260507022518 | 38 | 315 | 1.0 | 3.0 | 0.00 | 0.00 | 0.00 | 58 | 1015.7 |
| 20260507021519 | 38 | 0.0 | 0.0 | 0.00 | 0.00 | 0.00 | 57 | 1015.6 | |
| 20260507020537 | 39 | 315 | 1.0 | 2.0 | 0.00 | 0.00 | 0.00 | 57 | 1015.8 |
| 20260507015517 | 39 | 293 | 1.0 | 2.0 | 0.00 | 0.00 | 0.00 | 56 | 1015.4 |
| 20260507014517 | 39 | 293 | 1.0 | 2.0 | 0.00 | 0.00 | 0.00 | 56 | 1015.5 |
| 20260507013537 | 40 | 315 | 2.0 | 4.0 | 0.00 | 0.00 | 0.00 | 55 | 1015.5 |
| 20260507012537 | 40 | 315 | 4.0 | 8.0 | 0.00 | 0.00 | 0.00 | 54 | 1015.3 |
| 20260507011537 | 41 | 293 | 3.0 | 8.0 | 0.00 | 0.00 | 0.00 | 54 | 1015.3 |
| 20260507010517 | 41 | 315 | 4.0 | 9.0 | 0.00 | 0.00 | 0.00 | 53 | 1015.4 |
| 20260507005517 | 42 | 315 | 5.0 | 11.0 | 0.00 | 0.00 | 0.00 | 53 | 1015.4 |
| 20260507004517 | 42 | 315 | 3.0 | 8.0 | 0.00 | 0.00 | 0.00 | 53 | 1015.5 |
| 20260507003517 | 42 | 270 | 6.0 | 10.0 | 0.00 | 0.00 | 0.00 | 53 | 1015.3 |
| 20260507002517 | 42 | 315 | 6.0 | 11.0 | 0.00 | 0.00 | 0.00 | 52 | 1015.2 |
| 20260507001517 | 42 | 270 | 3.0 | 6.0 | 0.00 | 0.00 | 0.00 | 52 | 1015.2 |
| 20260507000517 | 42 | 270 | 5.0 | 10.0 | 0.00 | 0.00 | 0.00 | 52 | 1015.1 |
| 20260506235518 | 42 | 315 | 5.0 | 10.0 | 0.00 | 0.00 | 0.00 | 52 | 1015.2 |
| 20260506234519 | 43 | 315 | 5.0 | 10.0 | 0.00 | 0.00 | 0.00 | 52 | 1015.0 |
| 20260506233517 | 43 | 315 | 7.0 | 11.0 | 0.00 | 0.00 | 0.00 | 51 | 1015.0 |
| 20260506232517 | 43 | 293 | 4.0 | 9.0 | 0.00 | 0.00 | 0.00 | 53 | 1015.0 |
| 20260506231517 | 43 | 315 | 7.0 | 16.0 | 0.00 | 0.00 | 0.00 | 52 | 1014.9 |
| 20260506230517 | 43 | 315 | 5.0 | 10.0 | 0.00 | 0.00 | 0.00 | 52 | 1015.1 |
| 20260506225517 | 43 | 270 | 8.0 | 17.0 | 0.00 | 0.00 | 0.00 | 51 | 1015.2 |
| 20260506224517 | 43 | 315 | 6.0 | 13.0 | 0.00 | 0.00 | 0.00 | 52 | 1015.0 |
| 20260506223517 | 43 | 293 | 6.0 | 10.0 | 0.00 | 0.00 | 0.00 | 51 | 1015.1 |
| 20260506222517 | 43 | 293 | 6.0 | 12.0 | 0.00 | 0.00 | 0.00 | 52 | 1015.1 |
| 20260506221517 | 43 | 270 | 8.0 | 13.0 | 0.00 | 0.00 | 0.00 | 51 | 1015.0 |
| 20260506220517 | 43 | 270 | 7.0 | 11.0 | 0.00 | 0.00 | 0.00 | 51 | 1015.1 |
| 20260506215517 | 43 | 270 | 7.0 | 14.0 | 0.00 | 0.00 | 0.00 | 50 | 1015.1 |
| 20260506214517 | 43 | 270 | 9.0 | 15.0 | 0.00 | 0.00 | 0.00 | 49 | 1015.0 |
| 20260506213517 | 44 | 270 | 6.0 | 13.0 | 0.00 | 0.00 | 0.00 | 50 | 1015.0 |
| 20260506212517 | 44 | 293 | 10.0 | 19.0 | 0.00 | 0.00 | 0.00 | 50 | 1015.0 |
| 20260506211517 | 44 | 270 | 9.0 | 15.0 | 0.00 | 0.00 | 0.00 | 50 | 1015.0 |
| 20260506210517 | 44 | 270 | 7.0 | 15.0 | 0.00 | 0.00 | 0.00 | 51 | 1014.9 |
| 20260506205517 | 44 | 270 | 6.0 | 15.0 | 0.00 | 0.00 | 0.00 | 50 | 1015.1 |
| 20260506204516 | 44 | 270 | 8.0 | 15.0 | 0.00 | 0.00 | 0.00 | 51 | 1015.0 |
| 20260506203538 | 44 | 270 | 8.0 | 16.0 | 0.00 | 0.00 | 0.00 | 49 | 1015.1 |
| 20260506202517 | 44 | 293 | 8.0 | 17.0 | 0.00 | 0.00 | 0.00 | 49 | 1015.1 |
| 20260506201516 | 44 | 270 | 6.0 | 11.0 | 0.00 | 0.00 | 0.00 | 50 | 1015.1 |
| 20260506200516 | 44 | 270 | 6.0 | 13.0 | 0.00 | 0.00 | 0.00 | 49 | 1015.1 |
| 20260506195556 | 44 | 270 | 8.0 | 17.0 | 0.00 | 0.00 | 0.00 | 50 | 1015.0 |
| 20260506194517 | 44 | 270 | 9.0 | 18.0 | 0.00 | 0.00 | 0.00 | 49 | 1015.1 |
| 20260506193516 | 44 | 315 | 7.0 | 12.0 | 0.00 | 0.00 | 0.00 | 50 | 1015.1 |
| 20260506192516 | 44 | 270 | 8.0 | 18.0 | 0.00 | 0.00 | 0.00 | 50 | 1015.2 |
| 20260506191537 | 44 | 270 | 6.0 | 11.0 | 0.00 | 0.00 | 0.00 | 50 | 1015.1 |
| 20260506190537 | 44 | 293 | 7.0 | 12.0 | 0.00 | 0.00 | 0.00 | 50 | 1015.1 |
| 20260506185537 | 44 | 270 | 9.0 | 16.0 | 0.00 | 0.00 | 0.00 | 50 | 1015.1 |
| 20260506184517 | 44 | 270 | 7.0 | 14.0 | 0.00 | 0.00 | 0.00 | 50 | 1015.2 |
| 20260506183516 | 44 | 270 | 10.0 | 15.0 | 0.00 | 0.00 | 0.00 | 49 | 1015.2 |
| 20260506182516 | 45 | 270 | 7.0 | 13.0 | 0.00 | 0.00 | 0.00 | 49 | 1015.1 |
| 20260506181516 | 45 | 315 | 9.0 | 19.0 | 0.00 | 0.00 | 0.00 | 49 | 1015.1 |
| 20260506180516 | 45 | 270 | 6.0 | 12.0 | 0.00 | 0.00 | 0.00 | 49 | 1015.1 |
| 20260506175516 | 45 | 248 | 8.0 | 12.0 | 0.00 | 0.00 | 0.00 | 52 | 1015.1 |
| 20260506174516 | 44 | 293 | 7.0 | 11.0 | 0.00 | 0.00 | 0.00 | 50 | 1015.2 |
| 20260506173516 | 44 | 248 | 7.0 | 16.0 | 0.00 | 0.00 | 0.00 | 53 | 1015.2 |
| 20260506172517 | 44 | 270 | 9.0 | 16.0 | 0.00 | 0.00 | 0.00 | 52 | 1015.3 |
| 20260506171516 | 43 | 270 | 10.0 | 22.0 | 0.00 | 0.00 | 0.00 | 50 | 1015.2 |
| 20260506170516 | 45 | 270 | 7.0 | 14.0 | 0.00 | 0.00 | 0.00 | 49 | 1015.3 |
| 20260506165516 | 45 | 315 | 11.0 | 20.0 | 0.00 | 0.00 | 0.00 | 51 | 1015.4 |
| 20260506164518 | 44 | 293 | 10.0 | 17.0 | 0.00 | 0.00 | 0.00 | 50 | 1015.3 |
| 20260506163516 | 44 | 315 | 6.0 | 12.0 | 0.00 | 0.00 | 0.00 | 53 | 1015.4 |
| 20260506162516 | 44 | 270 | 7.0 | 16.0 | 0.00 | 0.00 | 0.00 | 50 | 1015.2 |
| 20260506161536 | 43 | 338 | 7.0 | 12.0 | 0.00 | 0.00 | 0.00 | 52 | 1015.1 |
| 20260506160516 | 44 | 293 | 7.0 | 13.0 | 0.00 | 0.00 | 0.00 | 53 | 1015.4 |
| 20260506155516 | 43 | 315 | 9.0 | 16.0 | 0.00 | 0.00 | 0.00 | 53 | 1015.4 |
| 20260506154516 | 43 | 315 | 8.0 | 15.0 | 0.00 | 0.00 | 0.00 | 53 | 1015.4 |
| 20260506153518 | 43 | 315 | 8.0 | 16.0 | 0.00 | 0.00 | 0.00 | 55 | 1015.2 |
| 20260506152518 | 43 | 315 | 8.0 | 13.0 | 0.00 | 0.00 | 0.00 | 51 | 1015.2 |
| 20260506151516 | 43 | 315 | 6.0 | 11.0 | 0.00 | 0.00 | 0.00 | 53 | 1015.2 |
| 20260506150516 | 43 | 338 | 8.0 | 15.0 | 0.00 | 0.00 | 0.00 | 57 | 1015.3 |
| 20260506145536 | 42 | 315 | 8.0 | 14.0 | 0.00 | 0.00 | 0.00 | 55 | 1015.2 |
| 20260506144516 | 42 | 315 | 7.0 | 13.0 | 0.00 | 0.00 | 0.00 | 55 | 1015.4 |
| 20260506143516 | 42 | 315 | 6.0 | 13.0 | 0.00 | 0.00 | 0.00 | 58 | 1015.3 |
| 20260506142516 | 41 | 315 | 8.0 | 15.0 | 0.00 | 0.00 | 0.00 | 55 | 1015.0 |
| 20260506141516 | 42 | 338 | 7.0 | 12.0 | 0.00 | 0.00 | 0.00 | 58 | 1015.0 |
| 20260506140516 | 41 | 315 | 7.0 | 14.0 | 0.00 | 0.00 | 0.00 | 58 | 1015.0 |
| 20260506135516 | 40 | 270 | 9.0 | 18.0 | 0.00 | 0.00 | 0.00 | 56 | 1014.8 |
| 20260506134516 | 41 | 293 | 5.0 | 10.0 | 0.00 | 0.00 | 0.00 | 59 | 1014.8 |
| 20260506133516 | 40 | 315 | 7.0 | 14.0 | 0.00 | 0.00 | 0.00 | 59 | 1014.6 |
| 20260506132516 | 40 | 338 | 6.0 | 11.0 | 0.00 | 0.00 | 0.00 | 60 | 1014.7 |
| 20260506131516 | 39 | 338 | 7.0 | 11.0 | 0.00 | 0.00 | 0.00 | 61 | 1014.5 |
| 20260506130516 | 39 | 293 | 6.0 | 12.0 | 0.00 | 0.00 | 0.00 | 63 | 1014.3 |
| 20260506125516 | 38 | 315 | 6.0 | 10.0 | 0.00 | 0.00 | 0.00 | 66 | 1014.2 |
| 20260506124536 | 38 | 315 | 4.0 | 9.0 | 0.00 | 0.00 | 0.00 | 68 | 1014.2 |
| 20260506123516 | 37 | 315 | 4.0 | 10.0 | 0.00 | 0.00 | 0.00 | 68 | 1013.8 |
| 20260506122536 | 37 | 293 | 4.0 | 8.0 | 0.00 | 0.00 | 0.00 | 69 | 1013.7 |
| 20260506121536 | 36 | 315 | 4.0 | 8.0 | 0.00 | 0.00 | 0.00 | 70 | 1013.8 |
| 20260506120536 | 35 | 293 | 4.0 | 8.0 | 0.00 | 0.00 | 0.00 | 72 | 1013.7 |
| 20260506115516 | 35 | 293 | 4.0 | 9.0 | 0.00 | 0.00 | 0.00 | 74 | 1013.7 |
| 20260506114516 | 34 | 293 | 4.0 | 9.0 | 0.00 | 0.00 | 0.00 | 75 | 1013.6 |
| 20260506113516 | 34 | 293 | 4.0 | 8.0 | 0.00 | 0.00 | 0.00 | 75 | 1013.3 |
| 20260506112516 | 34 | 293 | 4.0 | 8.0 | 0.00 | 0.00 | 0.00 | 74 | 1013.1 |
| 20260506111516 | 34 | 293 | 4.0 | 7.0 | 0.00 | 0.00 | 0.00 | 74 | 1012.9 |
| 20260506110516 | 34 | 293 | 3.0 | 7.0 | 0.00 | 0.00 | 0.00 | 75 | 1012.9 |
| 20260506105516 | 34 | 293 | 3.0 | 7.0 | 0.00 | 0.00 | 0.00 | 74 | 1012.9 |
| 20260506104516 | 34 | 293 | 3.0 | 7.0 | 0.00 | 0.00 | 0.00 | 75 | 1012.9 |
| 20260506103516 | 33 | 293 | 4.0 | 8.0 | 0.00 | 0.00 | 0.00 | 76 | 1012.8 |
| 20260506102516 | 33 | 293 | 3.0 | 7.0 | 0.00 | 0.00 | 0.00 | 76 | 1012.7 |
| 20260506101516 | 34 | 293 | 2.0 | 6.0 | 0.00 | 0.00 | 0.00 | 76 | 1012.8 |
| 20260506100516 | 34 | 293 | 3.0 | 5.0 | 0.00 | 0.00 | 0.00 | 75 | 1012.4 |
| 20260506095536 | 33 | 293 | 2.0 | 4.0 | 0.00 | 0.00 | 0.00 | 76 | 1012.4 |
| 20260506094536 | 34 | 293 | 2.0 | 3.0 | 0.00 | 0.00 | 0.00 | 75 | 1012.4 |
| 20260506093515 | 34 | 293 | 2.0 | 4.0 | 0.00 | 0.00 | 0.00 | 75 | 1012.3 |
| 20260506092516 | 34 | 293 | 2.0 | 6.0 | 0.00 | 0.00 | 0.00 | 75 | 1012.2 |
| 20260506091515 | 34 | 270 | 2.0 | 3.0 | 0.00 | 0.00 | 0.00 | 75 | 1012.3 |
| 20260506090515 | 35 | 293 | 2.0 | 3.0 | 0.00 | 0.00 | 0.00 | 73 | 1012.5 |
| 20260506085516 | 36 | 293 | 2.0 | 3.0 | 0.00 | 0.00 | 0.00 | 71 | 1012.3 |
| 20260506084516 | 36 | 293 | 3.0 | 4.0 | 0.00 | 0.00 | 0.00 | 70 | 1012.2 |
| 20260506083515 | 36 | 293 | 3.0 | 5.0 | 0.00 | 0.00 | 0.00 | 71 | 1012.2 |
| 20260506082515 | 36 | 293 | 3.0 | 8.0 | 0.00 | 0.00 | 0.00 | 73 | 1012.3 |
| 20260506081516 | 35 | 293 | 4.0 | 7.0 | 0.00 | 0.00 | 0.00 | 76 | 1012.1 |
| 20260506080516 | 33 | 293 | 4.0 | 7.0 | 0.00 | 0.00 | 0.00 | 80 | 1011.9 |
| 20260506073516 | 33 | 270 | 3.0 | 4.0 | 0.00 | 0.00 | 0.00 | 78 | 1011.8 |
| 20260506072536 | 34 | 270 | 2.0 | 4.0 | 0.00 | 0.00 | 0.00 | 76 | 1011.6 |
| 20260506071516 | 35 | 270 | 2.0 | 3.0 | 0.00 | 0.00 | 0.00 | 74 | 1011.4 |
| 20260506070516 | 35 | 270 | 2.0 | 4.0 | 0.00 | 0.00 | 0.00 | 74 | 1011.4 |
| 20260506061515 | 37 | 270 | 2.0 | 3.0 | 0.00 | 0.00 | 0.00 | 69 | 1011.6 |